Theta_e
341 347 349 352 355 354 354 355 354 353 353 353 353 352 351 350 350 349 349 349 349 350 350 352 352 352 352 351 351 351 352 352 352 351 350 349 349 348 348 349 349 349 349 349 349 350 350 350 350 349 348 348 349 349 349 350 350 349 347 346 346 347 348 348 348 349 348 350 351 352 351 352 353 353 353 353 353 352 350 350 349 347 347 349 351
342 348 349 352 354 355 355 354 354 353 352 353 353 352 351 350 349 349 349 349 349 349 350 351 351 351 351 350 351 351 351 351 351 351 351 350 350 350 349 348 347 347 347 347 347 348 347 346 346 346 346 345 345 345 345 345 346 347 347 346 345 345 347 347 348 348 348 348 349 350 350 351 351 352 353 352 351 350 348 349 348 345 346 349 350
343 348 349 352 353 354 355 353 354 353 353 352 352 352 351 349 349 348 348 348 348 348 349 349 349 349 349 350 350 349 350 350 351 351 350 350 349 348 348 347 347 347 346 347 346 346 346 346 345 344 342 341 341 342 343 343 342 343 345 345 345 344 344 346 347 348 348 347 347 348 347 348 349 350 351 351 351 351 348 348 347 346 344 349 348
344 347 350 350 350 353 355 354 353 352 352 352 352 351 350 349 349 348 348 348 348 348 348 348 348 347 348 348 349 349 349 349 350 350 350 349 348 347 347 347 346 346 346 346 346 347 345 344 343 341 339 337 337 337 338 340 341 341 342 343 344 345 344 343 344 346 347 348 348 345 345 343 344 348 348 348 349 348 346 347 347 347 347 347 348
344 348 349 350 351 351 353 354 353 353 352 352 351 351 350 349 349 348 348 347 348 348 348 347 347 347 347 347 348 349 349 349 349 350 350 348 348 347 347 346 346 346 346 346 346 347 345 344 342 340 338 337 335 334 334 337 339 340 341 342 342 344 344 343 344 345 345 346 345 344 342 343 343 347 347 348 348 346 345 345 345 346 346 347 347
343 347 349 350 351 351 350 353 353 352 352 352 351 351 350 350 349 348 348 347 348 348 347 347 347 346 347 348 347 348 348 348 348 349 349 349 348 347 347 346 346 346 346 346 346 346 344 343 342 340 337 335 335 333 333 334 335 338 339 340 342 344 343 343 344 343 345 344 342 342 342 342 343 344 347 347 347 346 345 345 345 345 344 345 344
345 347 347 348 349 349 347 353 353 352 351 352 351 351 350 350 349 348 348 348 348 348 347 346 346 346 347 347 347 347 347 347 347 348 349 349 348 348 347 345 345 345 346 346 345 345 345 343 341 339 337 335 334 332 332 332 335 336 338 339 341 342 343 342 341 345 344 341 335 340 341 342 342 342 346 347 347 346 345 346 345 344 344 344 343
343 346 346 347 348 347 348 353 352 351 351 351 351 350 350 349 349 348 348 348 348 347 346 346 346 346 347 347 347 346 347 347 347 347 348 347 348 347 346 346 346 346 346 346 345 345 344 342 339 338 336 333 332 331 330 332 333 337 337 338 341 340 341 339 342 342 341 339 337 337 339 341 341 342 346 346 345 344 342 342 343 343 341 342 341
343 344 344 346 350 346 348 351 352 352 351 350 351 350 350 349 349 349 348 348 348 347 346 346 346 346 346 346 346 346 346 347 347 347 347 346 346 345 345 345 345 345 344 345 345 344 343 340 338 337 335 333 331 329 329 332 334 335 336 338 339 339 339 340 340 339 337 337 336 335 334 340 340 341 345 345 344 342 340 338 339 339 339 339 340
342 344 343 350 349 345 348 351 352 351 351 351 350 350 349 349 349 349 349 348 348 347 346 346 345 346 346 346 345 346 345 345 347 347 347 345 344 344 345 344 344 343 343 344 344 344 342 340 338 336 334 332 330 329 330 333 334 334 335 336 335 337 337 339 338 337 338 337 336 333 337 343 340 340 343 345 343 340 338 338 338 337 336 337 337
341 342 351 350 348 345 351 353 351 351 351 350 349 350 349 349 349 349 349 348 348 347 346 345 345 346 346 345 346 346 346 346 346 347 346 345 345 344 343 343 343 343 343 344 344 344 343 340 337 335 333 331 328 328 330 333 333 333 334 334 335 337 338 337 336 335 336 336 333 335 342 343 339 338 343 344 342 340 337 337 336 336 336 336 337
340 346 349 347 345 345 350 351 352 350 350 349 349 349 348 349 350 349 348 348 348 347 346 345 345 346 345 346 347 346 347 346 346 346 346 346 345 345 344 343 343 343 343 343 343 341 339 338 336 334 331 329 328 329 332 333 333 333 334 334 336 337 335 335 333 333 334 334 333 336 337 338 339 340 343 343 341 340 337 337 337 336 336 335 336
342 346 348 347 346 341 346 350 350 350 350 349 349 349 348 349 349 349 348 348 348 346 346 346 346 346 346 346 346 346 346 346 345 345 344 344 345 343 342 343 343 343 341 340 339 339 338 336 334 333 330 328 327 329 331 332 331 331 332 335 335 335 333 332 330 332 332 332 331 335 337 336 337 341 342 342 340 338 337 337 336 335 335 334 332
339 342 348 348 345 342 341 346 348 350 350 349 349 348 348 349 349 349 348 348 347 347 346 346 347 346 346 347 346 345 346 345 345 344 344 343 343 342 342 342 342 341 340 340 339 337 336 335 332 330 328 327 327 328 330 331 331 331 332 333 334 333 330 329 330 330 328 328 326 333 335 335 336 340 339 340 339 337 335 336 335 333 333 333 333
340 341 343 345 344 343 338 339 344 347 347 348 348 348 348 346 350 349 349 349 348 347 347 346 346 346 347 347 346 345 345 345 345 344 343 343 343 342 342 341 341 340 339 338 338 336 335 334 331 328 327 326 325 327 329 330 330 331 332 332 331 330 329 326 329 328 325 327 330 335 334 334 339 338 337 339 338 336 335 335 334 331 332 332 331
337 337 339 340 345 343 342 338 337 341 343 346 346 346 347 347 347 349 349 349 347 347 347 347 346 346 346 346 346 345 345 345 345 344 343 343 342 342 342 341 340 339 338 338 337 335 334 333 330 327 324 322 322 324 326 327 328 328 329 329 329 329 327 323 326 326 326 328 330 331 331 333 338 338 337 338 337 335 335 335 333 330 332 331 330
335 335 337 337 339 344 344 344 337 331 336 339 340 343 345 346 346 346 349 349 348 348 348 347 347 346 346 345 346 345 344 344 343 343 343 342 342 341 341 340 340 339 338 337 336 334 333 331 329 325 321 319 319 321 324 325 326 326 326 326 328 328 324 322 325 325 325 327 331 330 329 331 337 337 337 334 335 336 335 333 331 329 331 331 330
332 334 334 335 334 337 344 344 342 343 345 336 334 338 341 345 345 345 345 346 347 347 347 346 347 345 344 343 341 341 342 344 343 342 342 341 340 340 341 340 339 338 337 336 335 334 332 330 328 324 320 318 317 319 321 322 323 323 324 325 326 324 322 320 323 321 323 327 328 328 329 334 337 336 335 335 334 335 332 331 330 331 331 329 329
329 332 333 333 333 334 335 342 344 344 344 344 344 339 336 339 341 341 341 344 345 343 343 343 341 340 339 338 337 335 334 335 336 337 339 336 335 333 338 339 338 337 336 336 335 333 331 330 327 324 320 318 317 316 317 318 319 321 322 324 322 319 320 321 323 323 323 323 325 325 329 335 336 336 334 334 332 333 331 329 328 330 329 329 329
329 330 332 332 334 334 335 335 339 344 342 344 344 344 333 333 337 339 339 340 340 340 340 339 334 330 330 331 329 328 327 329 328 333 332 334 332 332 334 338 337 336 335 335 334 333 331 329 327 324 321 319 318 316 316 316 317 319 322 320 319 318 318 319 320 321 323 322 321 322 329 333 336 335 333 332 334 333 330 328 328 328 328 328 327
325 323 325 331 332 332 334 334 335 337 340 341 342 345 338 331 333 332 332 334 336 336 336 330 324 321 322 322 324 336 337 334 333 334 325 333 325 327 332 337 337 336 336 335 334 332 331 329 327 325 321 318 319 317 317 317 317 320 319 318 314 313 315 316 318 319 321 318 317 319 327 331 334 334 332 332 332 331 328 328 328 327 327 327 326
314 315 316 317 319 333 333 333 334 335 337 341 343 346 340 337 342 340 338 333 331 330 332 337 331 335 325 326 335 339 338 338 338 331 336 332 327 325 327 332 336 335 334 335 334 332 330 329 327 325 323 320 317 309 308 312 315 315 314 313 308 308 312 313 314 317 318 316 314 320 325 329 333 333 331 331 330 329 326 328 327 326 327 326 326
313 314 315 318 318 319 320 326 334 334 336 337 341 342 343 343 342 342 341 334 335 335 339 338 339 340 339 339 338 339 336 337 336 335 335 326 329 323 326 330 333 332 332 333 333 332 330 328 327 325 325 323 317 310 308 307 306 309 306 304 303 304 308 310 310 312 317 314 309 319 321 326 330 333 331 329 329 328 325 327 327 325 326 327 326
313 314 316 319 317 317 319 319 321 334 335 336 337 337 342 343 342 341 341 341 340 340 339 338 336 338 339 339 337 337 336 336 328 326 327 332 326 321 324 325 327 327 326 328 330 330 330 328 327 326 324 318 316 313 310 307 303 300 299 299 300 301 303 305 306 308 311 312 309 316 316 321 326 330 331 329 329 327 326 326 327 326 326 327 327
312 314 314 316 316 317 317 319 320 326 333 334 334 335 336 336 337 341 340 340 338 339 339 338 336 336 336 336 337 337 335 335 333 332 333 332 328 325 324 326 328 328 325 329 328 325 323 321 320 319 316 317 315 313 312 309 306 302 300 299 299 299 300 301 304 304 305 307 308 315 314 315 320 326 330 332 334 334 335 332 329 327 327 328 328
313 312 313 314 315 317 317 317 318 318 330 332 334 333 335 335 335 336 339 338 339 338 338 338 337 337 336 336 335 333 335 336 336 335 334 333 329 327 327 328 328 329 329 331 329 326 323 322 320 319 317 316 314 313 311 310 307 303 302 302 302 299 299 299 301 301 301 306 307 314 312 312 314 318 323 328 331 333 333 334 334 335 334 334 331
310 312 313 313 315 317 318 318 316 317 325 333 333 334 334 335 336 335 335 336 337 337 336 335 336 336 336 335 334 333 331 332 333 332 332 332 332 330 328 329 332 331 331 331 330 327 322 320 319 318 317 315 314 312 311 311 309 308 306 307 306 303 301 301 299 300 301 302 309 313 313 311 311 313 316 321 325 328 331 332 333 333 334 334 333
310 312 313 314 315 316 318 319 316 316 322 331 332 332 334 335 335 334 332 330 333 334 336 336 335 332 330 331 330 332 332 332 331 330 331 332 332 332 331 330 331 330 328 330 327 324 322 320 318 316 316 315 314 314 313 312 310 310 309 309 308 307 305 306 302 303 303 301 304 310 312 311 311 311 313 315 318 321 323 326 329 332 333 333 334
310 311 312 314 314 315 317 320 317 317 323 328 328 331 333 334 332 330 328 326 329 329 330 331 330 329 328 328 328 330 332 332 331 331 331 331 332 332 331 330 329 329 328 328 326 324 324 321 318 316 316 315 314 313 313 312 310 310 310 310 309 308 308 306 305 305 303 302 302 305 313 313 311 310 311 312 314 316 318 320 322 325 329 331 332
310 310 310 311 312 314 320 322 324 321 326 328 326 328 328 327 326 325 325 324 325 326 327 326 327 326 325 325 326 327 329 329 330 330 328 327 328 327 327 327 328 327 328 327 326 324 321 320 318 318 316 315 314 313 313 312 311 311 310 310 309 309 308 308 306 305 304 303 302 303 311 311 312 310 310 311 312 314 315 317 318 320 322 325 328
308 307 308 310 312 316 320 322 324 326 326 324 324 324 324 323 323 323 323 322 322 323 323 323 324 323 323 324 324 324 325 326 325 325 324 324 323 323 324 324 322 322 324 323 322 321 319 318 318 318 317 316 315 314 314 313 311 311 310 311 310 309 308 306 305 305 303 302 302 301 305 310 312 312 311 310 311 312 313 315 316 317 318 322 324
306 306 308 310 314 316 320 320 321 324 322 321 321 321 321 321 321 321 320 319 319 319 319 320 319 321 322 322 323 323 323 323 323 322 323 322 322 320 319 320 320 320 321 321 321 321 320 319 319 318 319 318 316 314 313 312 311 310 311 311 310 309 308 307 307 305 304 302 302 301 300 304 309 313 312 312 311 312 314 314 314 316 317 318 318
305 306 308 311 312 316 318 317 317 319 319 317 317 318 317 317 316 316 317 316 315 315 314 315 315 316 318 319 320 320 322 322 321 320 319 319 318 317 317 316 318 319 320 321 321 321 320 319 319 319 318 317 317 315 315 314 314 312 311 310 309 309 308 308 306 306 305 304 302 301 301 301 300 310 312 312 311 312 312 311 311 313 315 315 315
304 306 308 309 312 315 315 314 313 312 312 313 313 313 313 312 312 312 312 312 311 310 309 309 310 310 310 311 314 317 319 320 320 319 318 317 316 315 314 315 316 317 317 318 318 318 318 317 316 317 316 316 316 315 313 313 311 311 311 310 308 307 307 307 307 306 305 304 303 302 301 301 299 300 302 310 312 310 311 311 311 312 312 312 313
304 306 306 309 310 311 311 310 310 309 309 309 309 309 309 308 308 308 308 308 307 307 307 307 307 307 308 308 308 308 311 314 316 317 316 315 314 313 312 313 313 313 313 313 315 315 314 312 313 313 313 316 313 309 308 308 308 308 308 309 309 308 307 307 306 304 303 302 302 301 301 300 300 299 299 297 303 307 311 310 311 313 313 313 314
303 305 306 308 309 309 309 309 308 306 306 308 306 307 306 306 305 305 305 305 305 305 305 306 305 306 306 306 306 306 307 309 311 313 312 312 311 310 310 310 311 310 310 311 311 312 314 312 310 308 307 305 304 303 302 301 302 304 305 306 306 306 305 305 303 302 302 302 300 300 300 300 300 299 301 298 298 303 309 311 311 311 312 311 313
303 305 306 307 307 307 307 306 307 306 305 305 305 305 304 303 303 303 303 304 303 303 304 304 304 303 304 304 305 305 306 307 307 307 307 307 306 306 306 306 307 307 306 306 307 307 307 310 306 304 303 301 301 300 300 300 301 302 303 303 304 304 304 303 300 300 301 299 298 299 299 299 299 302 298 298 298 298 303 307 309 309 311 311 310
303 305 307 307 307 307 306 305 305 305 305 304 303 303 302 301 300 300 300 300 300 301 301 301 301 301 302 302 303 303 305 305 306 306 305 305 305 305 305 305 305 304 304 304 304 305 306 305 303 301 301 299 298 298 298 298 300 301 302 302 302 302 301 299 300 300 299 298 297 298 298 297 298 298 298 298 298 298 299 301 305 305 305 308 308
303 305 306 307 307 306 306 306 305 305 305 304 303 302 301 300 300 299 298 298 298 298 299 298 298 299 300 300 301 301 302 304 305 305 304 304 303 303 303 303 303 302 302 301 301 301 301 303 302 301 300 298 297 297 296 297 298 300 301 300 300 300 299 298 299 299 298 298 298 299 299 298 298 298 298 298 298 298 298 298 297 297 298 305 307
304 304 305 306 306 306 306 306 306 305 304 303 302 301 301 300 298 298 297 297 297 297 297 297 297 297 298 298 298 298 299 299 301 302 302 302 302 302 302 302 301 300 299 298 298 298 298 298 300 299 297 296 296 296 296 295 297 296 297 299 300 299 298 297 298 298 298 298 297 297 297 296 296 296 298 298 298 298 298 297 297 297 298 301 305
304 305 304 304 305 304 304 304 305 305 304 303 301 300 298 297 297 296 295 296 296 296 295 295 295 295 296 296 295 295 296 296 297 297 298 299 299 299 299 298 297 297 296 295 295 295 296 297 297 298 296 295 295 295 295 295 294 294 295 298 298 299 298 297 296 296 297 297 296 297 295 293 293 294 296 296 296 296 296 295 296 297 297 297 298
301 303 303 303 304 304 303 303 303 302 301 300 299 298 298 297 295 295 295 295 294 293 293 293 293 293 293 293 293 293 293 294 294 294 294 295 294 294 294 293 293 293 293 293 292 293 293 294 295 295 296 295 293 294 294 294 291 290 290 293 294 295 296 295 295 296 298 297 297 297 293 291 291 293 295 294 294 294 293 293 295 296 296 297 297
301 301 302 303 303 302 301 301 300 299 299 299 298 297 298 297 295 294 294 293 293 293 292 292 292 291 291 291 292 292 292 292 292 293 293 292 292 292 291 291 291 291 290 290 290 290 290 290 291 291 292 292 294 293 291 292 289 291 291 291 290 292 294 291 293 295 295 296 296 295 293 290 290 291 294 291 292 292 291 290 293 294 295 295 296
300 300 301 302 302 301 300 299 297 297 297 297 296 296 296 296 295 294 293 292 290 291 291 290 290 290 289 290 291 291 291 291 291 291 291 291 291 290 290 290 290 290 289 288 289 289 289 289 289 289 289 287 288 289 290 289 289 290 286 288 289 288 284 286 288 291 289 295 294 294 292 290 289 289 293 289 291 291 289 289 290 293 293 294 295
298 299 300 300 301 299 298 297 297 297 297 296 295 294 294 294 294 293 293 292 291 289 288 288 288 289 289 289 289 290 290 290 290 290 290 290 290 290 289 288 289 289 288 288 288 288 288 288 288 287 287 286 286 285 287 288 288 289 289 286 285 284 284 286 287 287 288 289 289 289 292 288 288 288 290 288 289 290 288 288 289 291 291 292 294
296 298 299 299 299 299 299 298 297 297 297 296 296 295 294 293 292 290 288 288 286 286 285 285 286 287 287 288 289 289 289 289 289 289 289 289 289 289 288 288 287 288 288 288 287 288 288 288 288 287 287 287 286 284 284 286 287 288 288 287 288 286 284 286 283 280 286 287 286 287 288 287 287 287 288 287 288 289 289 288 289 290 290 291 293
295 297 297 297 297 297 296 296 295 295 297 295 296 295 293 292 291 290 288 287 286 286 286 286 286 287 287 287 288 288 289 288 288 289 289 289 289 288 288 288 288 287 288 288 288 287 288 288 288 287 287 288 286 284 284 284 284 286 287 286 286 285 287 285 282 282 278 280 284 285 286 286 286 286 287 286 287 287 288 288 288 289 289 290 291
294 295 294 295 294 294 294 294 293 294 294 294 294 293 291 291 289 289 288 287 286 286 287 287 287 287 286 286 287 287 288 288 288 288 288 288 288 288 287 287 287 287 287 287 287 287 287 288 287 287 287 287 286 284 283 284 283 284 286 285 284 285 284 283 283 281 279 278 279 282 284 284 284 285 286 286 286 286 286 286 287 288 287 288 290
293 292 292 292 293 293 293 292 292 292 292 293 292 292 291 290 289 288 287 287 287 287 288 288 287 287 286 286 286 286 287 288 288 287 287 287 287 287 286 286 286 286 286 287 286 286 286 286 286 285 285 286 286 285 284 283 284 283 283 283 283 282 282 282 282 282 279 277 277 278 280 282 282 283 284 285 286 286 286 286 287 288 288 288 289
292 293 292 292 292 292 291 291 291 291 292 291 291 291 290 290 288 288 287 287 287 287 287 287 286 286 286 285 285 285 285 286 286 287 286 287 286 286 286 285 285 286 286 285 285 285 285 285 285 285 285 284 285 285 285 284 284 284 283 283 282 281 279 280 279 280 279 279 278 278 280 279 279 280 283 283 284 285 285 286 287 287 287 287 288
290 291 291 291 291 291 290 290 290 291 291 291 291 290 290 289 289 288 287 287 287 287 286 286 286 285 285 285 284 285 285 285 285 285 286 286 286 286 285 285 285 285 285 285 284 284 284 284 285 284 284 284 284 283 284 284 283 282 282 282 281 282 281 280 279 280 279 277 277 277 279 279 279 279 280 282 284 284 284 286 287 287 287 287 287
Wind_Speed
2 12 9 9 9 11 12 12 11 11 11 12 12 12 11 10 9 8 9 9 9 8 9 9 9 9 10 10 10 10 11 11 12 13 12 13 13 14 14 15 15 15 16 16 16 17 18 18 17 17 17 17 16 16 16 15 15 15 14 14 13 13 12 11 11 11 11 11 14 15 15 15 16 16 17 18 19 18 17 16 14 10 8 11 15
3 11 10 7 9 12 13 12 12 12 12 11 12 12 11 10 9 9 9 8 8 8 9 10 10 10 10 11 11 11 10 11 11 11 13 13 14 14 15 15 15 15 16 17 18 17 17 17 17 17 17 16 16 15 14 14 14 13 13 13 13 12 11 11 10 9 9 9 10 13 13 15 15 16 16 17 17 18 17 17 16 10 7 15 15
6 9 9 8 8 10 12 12 12 13 12 12 12 12 11 10 9 9 9 9 8 8 8 8 9 9 10 10 10 11 10 11 11 11 12 12 14 14 14 15 15 16 16 17 17 17 17 17 17 17 16 16 15 15 14 14 13 13 12 12 12 11 11 11 10 8 6 6 5 8 11 12 14 15 16 17 18 18 17 17 15 14 10 16 15
7 8 8 9 8 9 10 12 12 12 12 12 12 12 11 10 9 9 9 9 8 8 8 8 8 9 9 9 9 10 10 10 10 11 12 13 13 13 13 14 14 15 15 16 17 17 18 18 18 17 16 16 15 15 14 13 13 13 12 12 11 11 10 10 11 10 9 5 5 3 4 6 8 14 15 16 17 18 16 17 17 17 16 16 18
3 9 8 7 5 7 10 11 12 12 13 12 13 12 12 10 9 9 9 9 8 8 8 8 8 8 9 8 9 9 10 10 10 10 11 12 13 13 13 13 13 13 15 16 17 17 17 17 17 17 16 16 15 14 14 13 13 12 12 12 11 11 10 10 10 11 10 9 8 5 5 5 5 12 14 16 16 16 16 17 18 18 17 18 19
2 9 8 6 6 5 9 11 12 12 13 13 13 12 12 11 9 9 8 9 8 8 7 8 9 8 8 8 8 9 9 9 9 10 10 11 12 12 12 13 13 13 15 15 16 16 17 16 16 16 16 15 15 15 14 13 12 12 12 11 11 11 11 10 10 10 9 10 6 3 6 5 5 6 14 14 15 15 16 17 17 17 17 18 17
4 9 8 6 6 6 9 10 12 13 13 13 13 12 12 11 10 9 9 8 8 7 7 8 8 8 7 8 7 8 8 9 8 9 11 11 12 11 12 14 12 12 13 14 14 15 16 16 15 15 15 15 15 14 14 13 13 12 11 11 11 11 11 10 10 10 10 7 4 4 6 6 5 4 13 14 16 17 17 17 17 16 17 16 16
3 5 7 7 5 7 9 9 11 12 13 13 13 12 12 10 10 9 9 8 8 7 7 7 7 8 7 7 7 7 8 8 8 8 9 9 11 11 13 12 10 11 12 13 14 15 16 15 15 15 15 14 14 14 13 13 13 12 12 11 10 11 11 10 10 10 12 6 6 5 5 6 7 5 12 15 16 16 16 16 15 16 15 16 13
2 2 10 8 8 13 8 10 10 12 13 12 13 13 12 11 9 9 9 9 8 7 7 7 7 7 6 6 6 6 6 7 7 8 9 8 11 9 11 12 11 12 11 12 14 16 15 14 14 14 14 14 14 13 13 13 12 12 12 11 11 11 11 11 11 12 6 2 7 5 5 6 6 5 11 15 16 16 16 13 12 14 15 14 13
3 3 6 8 8 13 11 10 10 11 12 12 13 13 13 11 10 11 10 9 8 8 8 7 7 6 5 5 4 5 5 6 6 8 9 10 9 10 10 9 10 10 12 14 15 15 14 14 14 13 13 13 13 13 13 13 12 12 11 11 11 11 11 11 13 9 5 5 4 3 9 9 6 5 10 14 15 16 15 14 11 10 11 13 14
4 2 9 9 10 11 11 10 8 10 12 11 11 12 12 11 10 10 11 10 8 8 8 8 7 6 5 4 5 4 4 5 5 7 11 9 10 9 8 9 11 13 14 15 16 16 15 15 14 14 14 14 14 14 13 13 12 12 11 11 11 11 11 10 9 5 4 6 6 6 9 12 5 4 11 14 15 15 14 14 14 13 14 14 14
4 9 8 8 9 10 9 9 9 11 10 11 11 10 11 10 9 10 10 10 9 7 8 8 7 5 4 5 4 3 4 3 5 6 9 10 10 8 10 11 12 14 15 16 16 15 15 15 14 14 14 14 14 14 14 13 13 13 12 12 11 11 11 9 5 5 4 5 5 6 7 8 6 7 13 14 14 14 13 14 14 15 15 14 14
4 9 8 8 7 9 8 8 9 10 10 12 12 11 11 10 9 9 9 10 9 7 7 6 6 5 5 4 4 4 3 5 5 5 6 8 10 8 10 11 13 14 15 15 14 15 15 14 14 14 14 14 14 14 14 14 13 13 13 13 13 13 12 12 5 4 6 6 5 7 8 5 5 9 12 13 13 13 13 14 15 14 14 14 14
4 3 7 6 5 9 10 8 7 7 9 11 12 11 9 11 9 8 8 9 9 8 5 6 5 5 5 6 5 5 5 5 6 7 8 8 10 10 8 12 13 14 14 14 14 14 14 14 14 13 13 14 14 14 14 14 14 14 13 14 13 13 13 9 8 5 5 4 4 6 5 3 3 8 9 11 12 11 12 13 14 14 13 13 13
5 5 5 7 6 5 10 9 8 8 8 6 8 7 8 7 8 7 6 7 9 7 5 5 4 5 5 6 6 6 6 6 7 8 9 9 9 10 10 11 13 13 13 13 13 13 13 14 13 13 13 13 13 13 13 13 14 14 14 13 13 12 12 7 7 3 3 4 6 7 6 5 9 11 10 11 10 10 11 13 13 12 11 13 14
6 4 3 4 7 6 5 7 9 7 8 7 7 7 9 7 4 7 6 6 8 8 6 3 4 5 5 6 6 6 6 6 7 8 10 10 9 10 11 12 12 12 12 12 12 12 13 13 13 12 12 13 12 12 12 12 12 12 12 12 11 12 13 10 6 6 5 6 7 7 7 6 10 10 11 10 10 11 12 12 12 11 11 12 12
4 5 3 4 3 6 6 5 5 7 8 9 7 7 8 7 7 5 6 6 7 7 5 5 4 6 6 6 6 6 6 7 7 8 10 9 9 9 10 13 12 12 11 12 12 12 13 13 11 12 12 13 12 12 12 12 12 11 11 11 12 10 12 11 6 6 6 6 7 6 6 6 8 9 9 10 10 11 11 10 11 10 10 11 10
2 2 1 3 3 2 7 6 6 5 4 6 8 9 8 8 8 6 5 7 8 8 6 6 5 6 7 7 7 6 6 7 7 9 9 9 8 6 8 11 11 11 11 11 12 12 12 11 11 11 12 13 12 12 11 11 11 10 10 10 10 12 13 11 5 6 6 8 7 6 6 8 11 7 8 9 9 10 10 11 10 9 10 10 9
3 5 6 4 4 5 3 4 6 5 5 5 4 7 9 8 9 8 6 7 8 9 8 7 7 8 8 9 8 8 7 8 9 9 9 9 7 7 8 9 10 11 11 11 12 11 11 10 10 10 11 12 12 12 11 10 9 8 8 8 10 10 10 6 5 6 6 7 6 7 7 14 12 9 8 8 8 9 11 10 9 8 8 8 8
3 3 4 6 5 3 5 3 2 5 5 5 5 6 8 8 7 8 8 7 7 8 9 8 8 9 9 9 9 7 7 8 11 9 11 11 9 7 9 8 10 11 10 11 11 11 10 9 9 9 9 11 11 10 10 10 9 8 7 9 10 9 7 6 6 6 7 7 6 6 11 15 14 9 8 8 12 10 10 9 8 7 7 6 7
3 5 4 3 2 2 4 4 4 2 2 5 5 7 8 10 7 7 7 8 8 8 8 9 8 7 7 7 8 7 6 5 7 6 9 8 9 10 10 10 10 10 10 11 11 11 9 8 8 8 7 8 7 7 6 7 7 6 8 10 10 7 6 6 6 5 6 6 7 6 13 13 14 10 8 8 9 10 9 7 6 7 7 7 6
6 4 5 6 5 0 1 3 5 4 4 1 2 5 7 8 7 5 4 5 6 6 6 4 5 4 5 5 3 4 6 6 6 8 6 7 8 11 11 11 10 10 9 10 11 10 9 8 7 7 5 5 4 3 2 3 5 5 6 9 6 4 5 6 6 6 5 5 6 7 13 13 14 10 9 7 8 8 6 5 4 6 7 6 5
6 6 4 6 6 7 7 4 2 4 4 4 0 5 6 5 4 6 5 6 5 5 4 4 3 4 4 3 4 5 3 5 6 7 6 8 7 10 11 12 11 10 9 10 10 10 9 7 6 5 5 3 1 3 3 1 1 5 6 5 4 4 4 5 5 5 5 5 5 9 11 12 12 12 8 7 6 7 6 5 3 4 5 5 5
4 3 6 4 6 6 7 5 7 3 3 5 1 1 7 5 6 6 5 5 5 5 3 3 3 4 5 4 2 3 3 5 7 9 8 5 5 5 8 11 11 10 10 7 7 8 8 6 4 4 4 4 4 3 3 3 3 4 4 5 4 4 4 4 4 5 4 4 4 9 10 10 10 10 9 7 7 5 6 6 6 5 5 5 6
4 3 5 5 4 5 4 6 7 6 1 4 4 1 2 5 5 7 6 5 4 5 3 3 3 3 2 0 2 3 2 4 6 6 5 6 5 4 2 2 3 5 8 5 4 3 3 3 1 0 4 5 5 4 4 3 4 4 4 4 3 3 4 3 3 4 3 4 4 8 9 10 10 9 9 10 12 13 12 10 8 6 5 6 6
4 5 4 4 4 4 4 3 5 6 3 2 4 2 0 0 1 4 6 5 5 4 1 2 1 3 3 4 6 4 3 3 2 4 6 6 6 5 5 4 4 5 4 5 5 3 2 2 4 5 5 4 4 4 4 4 3 3 3 3 3 3 2 2 3 3 2 4 3 6 6 8 10 10 9 10 11 12 13 12 12 13 12 14 7
5 4 4 3 5 5 6 4 3 5 5 3 3 1 1 1 4 4 4 5 5 5 6 4 2 2 3 4 1 1 3 1 1 1 1 3 5 4 5 5 4 4 2 2 4 2 3 5 5 4 4 3 2 3 2 2 2 2 2 2 3 2 3 3 3 3 1 3 5 7 5 5 7 9 10 10 11 11 11 13 13 12 12 11 12
4 6 5 5 5 6 8 6 3 4 5 3 2 1 0 3 5 8 9 9 7 7 6 5 6 8 8 7 7 3 4 4 1 2 3 2 3 1 2 1 3 4 3 3 5 3 3 4 4 3 3 3 3 2 1 1 2 2 3 2 1 2 3 3 2 2 1 2 2 4 5 5 4 5 7 9 10 11 11 12 13 14 13 12 12
6 6 5 6 6 7 8 9 2 3 5 3 3 4 3 8 8 8 8 8 8 8 8 8 7 7 8 8 8 6 6 4 4 5 5 4 3 4 4 3 3 4 4 5 5 3 2 2 3 3 3 4 4 3 1 2 2 2 3 2 2 1 1 2 2 3 3 3 1 1 4 3 3 3 4 6 8 9 10 11 11 12 13 14 14
6 6 6 6 6 8 7 8 8 4 4 2 4 9 8 8 8 8 6 8 7 7 8 8 7 7 7 7 7 6 6 6 5 4 6 4 5 4 6 6 3 2 4 4 2 2 3 5 4 1 2 4 4 3 2 1 2 1 1 2 3 3 1 1 1 1 3 4 3 1 2 2 3 4 5 5 6 6 8 8 10 10 11 12 13
6 7 6 6 6 6 6 8 7 9 10 9 7 8 9 9 8 7 7 7 6 7 8 8 7 8 7 7 6 7 7 6 5 6 6 4 6 6 7 6 6 6 5 6 5 5 5 5 4 4 3 4 3 2 4 4 1 2 1 1 2 3 2 2 2 2 2 3 4 3 1 1 0 3 5 8 8 9 8 9 8 8 9 9 10
6 7 6 5 5 7 7 8 8 9 10 9 9 9 9 9 8 8 8 7 7 8 8 7 8 8 8 8 7 6 7 8 8 7 7 7 7 7 7 7 6 6 6 6 6 6 5 5 4 4 3 3 2 3 2 3 1 2 1 1 1 1 2 2 2 1 1 2 3 4 2 0 3 2 3 5 8 10 11 12 12 10 9 9 9
4 5 6 6 7 6 6 7 8 9 10 10 9 8 7 7 8 8 7 7 8 8 8 7 7 8 8 8 8 8 7 7 7 8 9 8 8 8 7 7 6 6 6 6 6 4 4 4 2 2 3 2 1 1 1 3 2 1 0 1 3 2 1 1 1 2 2 2 3 3 5 5 3 2 2 3 6 8 11 13 13 13 12 12 12
4 4 6 7 6 4 4 5 8 10 9 7 8 8 7 7 8 7 8 8 8 8 7 7 7 7 8 9 8 8 8 7 6 8 8 8 8 8 7 7 6 7 7 7 7 6 6 6 6 5 3 4 3 4 5 5 6 6 5 2 2 2 2 2 1 2 4 4 5 4 6 7 8 6 4 5 4 5 10 13 13 13 12 12 13
4 5 7 6 6 6 5 5 7 8 9 7 10 9 7 8 8 8 8 8 8 8 8 8 8 7 8 8 9 9 10 9 9 7 8 8 8 8 8 6 6 7 8 7 7 6 6 6 7 7 6 7 7 7 8 7 7 7 6 6 4 4 6 6 1 4 5 5 6 5 7 7 7 7 7 5 4 6 8 11 13 13 13 14 14
6 5 5 5 7 7 7 8 8 10 10 8 9 8 9 10 8 8 8 8 8 8 8 8 8 8 8 8 9 10 10 10 9 8 8 7 7 7 6 6 6 7 8 8 7 6 4 7 9 8 7 7 8 9 7 7 6 6 6 7 5 3 5 5 6 5 6 8 8 7 7 8 7 7 7 7 7 6 10 10 13 15 12 13 15
5 6 6 5 7 8 8 8 9 9 9 12 11 9 10 11 9 9 9 9 9 9 8 8 8 8 7 8 9 10 11 10 10 9 8 8 8 8 7 7 6 6 7 7 7 6 6 6 8 8 7 6 8 8 7 7 7 6 5 4 5 3 5 6 6 7 6 7 5 6 7 6 5 6 6 7 6 6 9 13 13 15 10 11 15
4 5 4 5 6 7 7 8 8 8 9 9 9 8 9 10 10 9 9 10 10 9 8 8 8 7 7 9 8 7 8 9 9 8 8 8 7 7 8 9 8 8 8 8 8 7 7 6 6 8 9 8 7 7 8 8 7 6 5 4 3 6 7 6 5 5 6 5 6 7 7 6 6 5 6 5 5 6 6 9 12 11 12 14 17
4 4 5 4 5 5 7 8 8 8 9 10 11 10 10 11 10 10 10 10 9 8 8 9 8 8 9 9 9 9 9 9 8 7 8 8 9 9 9 9 8 8 9 9 9 9 9 7 7 7 8 8 7 6 6 6 6 5 4 4 4 6 6 5 4 5 7 7 8 7 7 8 7 7 6 6 7 7 8 7 8 8 8 14 16
3 4 4 5 5 6 5 6 8 8 6 6 6 7 7 7 9 8 11 9 9 9 9 9 8 9 9 10 10 10 10 10 10 9 9 9 9 9 9 10 9 8 9 10 9 9 9 8 6 8 7 7 7 7 8 7 5 5 5 5 6 7 6 7 8 7 7 7 7 7 9 8 8 8 8 8 8 8 8 7 7 7 7 9 13
4 4 4 5 5 5 5 7 5 5 5 6 5 6 7 8 9 9 10 8 8 9 10 9 9 9 10 10 10 9 10 10 10 9 9 9 9 9 9 9 9 9 9 9 8 9 8 8 6 5 6 6 8 9 10 6 7 8 7 5 6 7 9 8 6 5 6 7 7 7 8 9 8 8 7 7 7 8 8 9 8 7 7 7 8
4 5 4 5 4 4 6 6 6 7 7 7 6 7 7 6 8 7 9 7 8 9 9 9 9 9 10 10 9 9 10 10 9 9 10 9 9 9 10 9 9 9 8 8 9 9 10 10 7 6 4 7 7 9 10 6 7 4 4 4 3 2 5 8 9 6 6 6 7 7 8 9 9 8 6 7 7 7 9 8 8 8 8 8 7
4 4 3 5 4 5 6 6 6 6 6 6 6 8 7 7 8 7 9 10 8 8 9 7 8 10 10 9 9 10 10 10 10 10 9 9 9 9 8 8 9 8 9 10 9 10 9 10 9 7 6 5 5 7 11 9 6 5 2 3 3 2 3 9 7 7 7 6 6 7 7 9 10 9 6 8 7 6 8 9 8 8 8 8 7
4 4 3 5 4 5 6 7 7 7 7 7 9 9 10 10 10 10 10 10 8 8 9 8 9 11 11 9 9 9 10 10 10 10 9 10 9 9 8 8 8 7 7 8 9 9 9 9 9 9 5 8 6 8 8 10 8 7 6 2 3 2 4 5 8 5 6 6 9 5 6 6 9 9 6 8 8 6 7 8 8 7 8 8 7
3 2 3 4 4 6 7 7 7 8 8 9 10 10 11 11 10 10 9 9 8 7 8 9 8 8 9 10 9 9 10 10 10 10 9 9 8 8 8 8 8 7 7 8 8 8 8 7 9 9 9 6 8 5 8 9 11 8 4 4 5 5 1 4 5 5 8 8 7 9 4 7 8 7 5 7 7 5 6 7 7 6 7 8 7
3 2 3 4 4 6 7 7 8 7 7 7 8 7 8 9 6 7 8 7 8 7 8 8 7 8 8 6 9 9 8 9 8 8 8 7 8 8 7 8 8 8 8 7 7 8 9 9 8 7 9 9 5 7 8 8 8 9 8 5 2 1 3 4 5 5 7 3 6 8 5 7 5 6 4 6 6 6 6 6 6 7 6 7 7
3 2 3 5 5 5 5 6 6 5 4 5 4 5 6 6 8 7 7 8 10 6 5 6 7 6 7 8 7 7 8 9 8 8 8 8 8 8 8 7 7 7 7 7 8 8 7 8 7 8 8 7 7 8 7 7 6 7 7 7 7 5 3 3 3 3 6 3 3 6 5 7 7 6 4 5 5 5 6 5 6 6 6 7 7
3 3 4 4 5 5 6 6 5 5 4 6 8 8 9 9 10 9 7 8 8 9 7 7 6 6 8 8 7 7 7 7 8 8 8 8 8 8 8 7 8 7 7 7 7 7 7 7 8 8 7 7 7 7 6 6 7 6 6 6 6 7 6 5 4 4 4 8 9 2 2 6 6 6 5 7 5 5 7 7 6 6 6 6 7
4 4 4 4 5 5 6 6 6 6 6 7 8 8 9 10 9 9 10 7 8 8 6 6 6 6 8 6 7 7 7 7 7 7 7 8 8 8 7 8 8 8 7 7 7 7 8 7 8 9 8 8 7 6 6 7 6 6 5 6 5 6 5 4 4 5 3 5 6 6 10 4 2 4 7 5 5 7 7 7 6 6 5 6 7
4 4 4 4 5 5 7 7 7 6 6 7 8 8 9 9 9 8 11 10 7 7 6 7 6 5 7 6 6 6 6 7 7 6 7 7 7 7 8 8 8 7 7 7 7 8 7 7 7 7 7 7 7 7 7 6 6 6 6 5 5 5 4 4 3 6 3 2 6 11 9 13 13 5 5 6 8 8 8 6 6 5 6 6 7
4 4 4 4 5 5 6 7 6 6 6 7 8 9 8 8 9 9 9 10 9 8 8 7 6 6 7 6 6 6 6 6 6 7 7 7 8 7 7 8 7 7 7 7 7 6 7 6 6 6 7 8 6 6 7 6 6 7 7 6 6 5 3 3 4 5 3 4 5 5 7 6 8 14 4 6 6 7 7 6 7 6 6 6 7
Wind_Direction
227 123 126 132 144 144 140 140 135 132 128 124 119 114 109 106 102 96 94 98 96 94 89 85 86 83 79 81 80 88 89 87 86 89 89 86 84 83 83 78 74 71 69 63 62 58 57 56 54 52 50 47 46 45 44 43 43 43 43 41 40 39 38 39 39 36 34 38 62 57 54 54 53 57 58 56 54 54 52 54 53 48 44 46 51
150 127 128 133 143 145 144 145 139 136 132 128 121 115 112 109 106 101 99 94 96 94 95 99 95 91 89 82 78 80 90 92 89 85 85 84 84 82 79 77 75 75 75 72 68 64 61 58 54 50 46 43 40 39 38 37 38 38 39 39 36 35 31 28 25 28 31 36 53 66 53 55 55 56 59 59 57 55 52 52 51 48 41 48 49
124 126 130 128 133 145 145 144 142 141 137 130 124 120 115 112 109 110 110 106 101 102 95 86 92 93 82 80 79 77 87 97 95 93 93 89 84 80 79 79 76 75 74 72 70 66 61 56 52 49 45 40 36 33 31 32 32 33 34 35 34 30 26 16 9 5 24 33 26 53 65 56 56 58 61 58 57 54 52 51 52 55 50 50 49
125 124 124 122 115 139 141 143 142 144 135 132 128 123 120 117 115 113 111 106 106 103 101 101 92 91 87 82 81 79 83 96 98 96 95 94 92 88 86 86 84 79 76 73 68 63 57 53 49 46 42 39 36 32 28 26 27 27 28 30 29 26 22 13 357 352 351 1 12 13 60 58 54 60 61 60 59 53 50 50 49 49 52 51 48
137 122 123 125 119 125 143 141 145 143 138 136 131 127 124 121 120 116 113 110 106 105 102 100 95 91 86 84 83 83 83 90 100 99 97 97 95 95 95 92 86 84 79 72 65 58 53 50 47 44 40 36 33 31 28 25 23 24 24 22 23 21 20 12 357 346 340 343 351 20 68 64 53 61 63 65 64 60 53 49 46 42 40 41 39
162 120 130 135 131 114 137 142 146 146 142 139 134 129 127 125 122 122 116 113 111 106 103 97 93 92 91 86 78 81 80 83 93 100 99 95 96 93 87 85 82 77 79 74 65 57 51 46 43 42 39 33 30 28 28 25 23 22 21 20 19 19 16 9 353 340 335 332 354 90 74 64 53 54 60 61 63 62 56 50 46 43 39 38 34
143 125 137 140 133 125 142 147 149 146 147 140 137 131 128 127 127 123 119 114 110 108 103 99 96 97 96 92 85 79 79 78 84 98 102 102 99 93 85 71 66 77 75 71 64 57 53 46 42 39 36 32 28 26 26 25 23 21 21 19 19 16 12 3 347 340 338 332 67 72 80 74 59 50 62 60 56 53 51 47 45 43 41 39 37
116 130 141 140 121 127 143 145 152 147 150 145 140 134 131 132 130 126 122 121 115 114 106 106 101 101 99 97 96 91 83 85 90 99 102 104 100 98 95 101 98 82 79 73 66 61 56 48 41 37 35 31 28 27 27 26 22 22 21 18 20 16 8 358 343 340 331 332 32 46 71 83 68 54 61 62 56 52 49 45 43 43 39 37 38
127 193 135 134 131 134 139 141 152 151 149 149 142 140 138 138 134 130 128 128 126 119 117 108 109 106 102 101 92 92 86 87 90 95 106 105 100 93 91 93 96 83 79 77 68 64 58 52 42 38 35 32 30 29 29 27 26 25 22 23 20 10 4 355 347 336 326 324 60 35 45 74 74 66 65 65 61 58 55 52 44 41 40 37 35
153 230 121 112 135 138 138 145 159 148 153 154 149 147 144 144 141 140 138 136 135 130 123 121 123 118 112 101 101 94 95 87 83 94 96 90 86 92 97 95 89 72 66 68 69 66 62 56 47 40 35 35 33 31 30 30 30 29 30 26 18 10 2 2 347 334 310 24 50 66 66 72 64 56 65 68 64 59 56 52 49 45 39 38 37
153 160 87 108 125 128 139 143 143 150 154 155 157 148 147 146 144 145 145 141 141 141 134 133 133 131 115 97 74 82 78 101 101 101 105 114 108 102 93 94 77 64 70 70 66 64 60 54 47 42 38 36 36 33 32 32 30 29 31 28 20 14 11 355 342 319 325 46 31 38 72 72 69 60 65 70 65 59 54 50 44 42 40 37 36
146 80 98 102 108 116 126 138 140 147 157 154 161 149 151 146 146 150 149 142 145 150 145 143 144 134 130 115 112 98 110 99 104 109 115 118 117 114 109 88 77 75 74 70 66 62 56 52 48 45 42 40 37 36 34 32 31 29 27 23 18 11 2 339 325 314 19 44 37 55 64 60 57 54 59 64 61 55 50 45 42 40 40 37 34
54 103 111 123 115 106 104 121 142 156 159 159 160 157 159 150 147 151 154 145 146 154 150 148 140 137 127 110 116 126 133 116 104 92 106 115 115 107 98 89 81 82 76 71 67 64 59 56 52 49 46 44 41 37 36 34 32 30 24 16 11 6 354 337 326 345 40 45 28 53 59 53 48 55 59 62 60 51 41 40 41 38 38 38 34
34 62 118 113 116 110 96 103 137 155 157 167 157 160 165 152 149 152 158 149 146 152 160 159 148 139 121 108 89 86 98 110 94 92 110 118 110 101 98 89 90 85 81 78 74 71 67 63 57 53 51 50 46 41 39 36 34 31 24 14 8 2 357 347 337 36 33 29 39 67 71 61 68 47 51 58 58 41 32 39 41 37 38 39 38
43 7 82 123 129 125 106 92 110 153 149 165 164 156 153 164 146 152 155 147 147 154 160 161 152 132 125 114 107 103 105 108 113 112 112 119 116 109 91 96 95 91 89 86 84 80 77 72 67 62 60 59 53 48 43 40 34 26 19 12 7 359 2 348 339 33 48 24 41 61 45 32 41 43 44 53 47 31 20 40 39 37 40 39 37
18 4 6 100 134 130 121 103 96 111 143 157 151 165 156 167 155 151 152 144 151 155 157 146 143 105 106 103 102 105 99 108 112 121 119 122 116 116 115 109 102 99 98 97 92 85 79 75 73 71 69 65 60 58 52 47 40 30 17 9 2 359 0 1 335 27 27 22 51 44 31 19 28 49 48 47 30 25 33 44 38 35 41 43 39
20 343 19 39 96 147 135 130 112 109 118 138 146 167 161 153 168 165 152 143 148 152 152 137 131 130 116 108 95 89 91 101 117 121 117 121 120 109 119 116 108 103 97 93 88 82 75 73 72 72 72 69 63 61 57 51 45 34 16 7 3 355 354 357 335 23 21 17 56 43 21 6 16 40 44 40 36 43 44 38 37 39 45 45 41
6 0 57 67 5 10 139 148 147 156 145 133 164 161 161 165 159 161 152 150 148 148 145 142 126 109 100 105 104 98 102 112 116 119 113 111 109 107 119 106 102 100 95 89 84 80 74 71 69 73 75 73 70 64 60 52 45 35 20 8 2 356 347 348 356 5 9 35 45 32 17 1 15 23 31 26 44 50 43 39 40 46 50 45 45
53 30 17 29 25 1 10 131 164 174 179 164 159 169 168 168 155 158 167 157 153 147 147 143 130 117 118 121 124 121 118 118 113 116 111 108 107 98 106 108 109 101 97 90 87 82 76 68 66 70 73 74 72 69 64 59 48 38 27 12 358 352 349 352 351 15 28 54 43 28 7 10 11 18 24 14 24 49 44 38 36 40 47 45 44
97 113 74 26 7 3 333 360 161 182 186 175 184 161 167 161 166 172 167 157 155 154 151 147 137 129 132 139 142 133 133 132 127 128 129 133 136 131 128 120 115 112 106 103 99 93 85 75 67 68 71 72 70 68 65 59 48 36 21 18 18 21 19 9 0 23 29 45 41 26 8 12 6 16 20 25 46 38 39 37 36 37 34 43 33
83 49 44 96 107 322 342 333 315 308 197 181 189 160 159 158 162 172 164 158 162 166 160 146 136 132 136 152 152 153 146 132 138 130 139 148 150 150 146 133 127 125 123 118 112 105 100 90 80 73 82 83 78 68 58 60 53 26 20 28 38 31 15 9 1 25 49 44 33 19 11 10 2 18 15 23 33 34 32 45 40 38 28 37 12
32 38 40 19 8 114 177 287 327 316 318 272 139 132 151 166 162 165 169 177 173 166 161 159 157 146 149 148 188 192 161 155 149 141 154 158 158 156 146 138 137 137 128 128 122 120 116 109 106 104 104 125 142 108 92 60 57 44 24 47 44 30 17 18 15 21 50 50 34 12 15 7 9 12 11 8 37 31 34 32 33 34 31 28 8
35 2 30 33 8 351 5 340 274 302 321 307 71 114 150 169 177 165 169 180 179 173 175 173 175 153 169 184 198 229 156 143 134 157 152 168 159 159 149 145 149 140 135 132 130 128 125 129 130 142 127 178 122 89 100 106 54 50 56 64 52 28 33 31 24 28 55 61 39 19 13 7 4 3 357 9 25 29 22 353 20 14 11 352 356
25 350 19 21 22 359 346 333 334 302 337 320 313 149 152 179 184 167 177 179 175 184 195 195 191 166 173 197 217 229 120 124 138 141 138 142 144 164 165 154 148 138 131 120 119 127 136 141 171 147 164 98 62 41 63 48 40 53 34 37 62 44 52 43 38 20 59 61 44 35 17 6 4 357 1 357 16 36 7 0 351 354 340 329 335
1 10 18 2 15 349 349 332 331 319 297 301 304 247 211 173 167 158 161 169 189 175 201 178 155 126 149 107 342 354 82 118 139 145 153 148 153 159 162 158 130 137 138 129 126 148 152 163 179 299 58 57 55 34 35 42 40 62 41 17 18 45 72 64 68 37 52 88 57 46 25 11 1 352 350 339 346 3 355 360 344 326 314 310 292
13 28 1 351 2 336 338 322 306 304 273 264 281 294 20 42 138 137 140 139 147 124 94 45 37 50 45 64 18 44 321 99 141 163 162 155 155 164 166 174 164 153 174 144 142 178 225 141 98 74 66 58 72 62 41 46 40 58 61 33 11 10 49 50 89 77 52 113 90 66 45 20 3 356 344 333 338 346 352 356 354 349 350 351 329
16 15 9 348 352 349 314 273 265 283 281 221 274 345 28 1 49 45 99 133 131 125 108 75 51 81 64 57 102 186 153 145 328 204 42 106 149 169 169 193 157 138 151 115 124 126 82 78 81 92 96 87 75 98 91 66 58 68 47 38 354 12 32 3 49 53 334 119 124 109 88 46 16 2 353 342 337 340 342 341 345 350 2 348 350
11 12 9 356 360 326 314 288 209 249 271 212 230 217 163 62 47 39 39 27 48 43 48 73 56 48 35 30 6 25 44 31 307 111 133 179 167 156 117 81 92 102 61 87 98 92 91 104 116 135 122 115 98 80 84 95 57 58 71 19 345 4 27 346 22 26 344 346 110 122 114 85 43 14 5 355 350 348 344 340 342 343 351 356 354
18 16 6 4 342 325 309 313 180 246 255 170 217 179 76 62 53 51 46 52 60 62 61 59 53 52 43 31 23 17 21 40 19 35 26 66 43 68 86 40 58 74 134 94 113 136 147 84 75 60 72 80 64 23 61 53 65 47 54 2 358 353 6 10 19 353 343 342 79 104 87 63 44 22 13 8 0 359 356 354 348 346 347 347 357
19 9 2 352 332 315 329 337 322 238 252 111 31 48 61 65 59 59 56 57 60 64 61 57 50 54 47 42 33 20 36 30 32 46 64 47 81 75 86 95 84 73 88 97 91 86 81 84 80 62 82 76 66 13 21 156 97 63 30 1 350 339 350 34 19 13 353 342 355 79 55 69 359 353 359 358 4 2 8 4 2 359 353 351 348
11 2 357 344 319 326 348 351 337 37 59 69 68 63 63 68 65 67 61 55 53 63 59 56 47 44 39 36 37 33 37 29 30 42 46 30 49 41 40 49 48 30 37 68 60 67 64 57 45 20 48 83 101 61 14 346 105 86 64 3 323 343 356 8 12 10 14 356 355 340 330 3 356 333 347 348 353 3 4 9 11 5 2 359 352
6 357 348 323 334 351 9 1 11 49 59 67 75 72 66 72 69 68 64 62 59 63 59 58 53 49 40 33 29 40 42 40 31 32 47 47 41 40 33 39 36 30 35 47 56 54 60 51 34 16 359 43 50 65 12 329 323 105 71 311 306 339 350 0 347 1 10 7 340 329 4 319 291 301 347 342 0 5 6 6 2 2 2 2 359
9 350 341 341 1 355 15 21 33 52 62 64 71 76 69 66 68 63 67 65 62 61 59 55 58 49 40 36 38 37 42 49 46 46 48 50 52 48 39 32 28 27 27 26 37 41 58 65 37 322 358 7 351 74 317 323 320 92 130 59 359 322 306 359 332 5 25 354 345 356 7 354 359 346 354 340 10 14 16 8 360 358 359 359 357
352 348 343 0 358 5 27 36 45 59 64 63 73 78 75 71 68 65 60 64 64 63 56 50 51 52 43 31 30 37 42 39 49 55 58 56 52 48 39 29 18 28 38 35 37 28 29 29 19 2 343 341 16 36 18 355 12 18 19 357 339 326 14 338 336 55 36 21 15 28 11 11 20 25 6 352 36 19 17 9 360 357 358 1 357
2 359 359 353 14 29 37 47 46 63 67 60 71 63 68 73 66 64 63 60 64 64 58 55 52 53 49 42 37 36 37 36 35 47 56 56 55 51 43 35 29 36 46 39 37 31 40 38 25 25 2 16 26 32 25 15 12 10 354 351 351 354 359 327 339 49 41 21 21 25 32 37 22 7 356 20 23 5 10 3 1 3 6 6 2
11 359 359 358 37 35 48 65 50 63 66 65 70 72 75 76 72 70 70 62 65 64 62 61 61 55 55 53 49 47 43 39 41 44 57 54 59 57 51 41 38 45 45 41 42 29 26 52 36 30 26 28 24 19 14 2 354 346 332 335 332 359 343 2 43 43 39 35 33 27 36 36 25 16 17 17 19 8 1 355 2 7 7 6 3
14 9 5 16 43 47 44 63 68 64 72 81 79 73 73 75 71 66 65 66 63 62 60 59 58 57 53 57 51 55 55 51 48 48 57 54 56 55 41 37 27 42 46 38 39 29 29 48 51 39 40 32 26 12 356 348 336 321 318 323 330 359 12 38 43 49 44 48 33 32 47 42 30 22 13 27 17 5 3 5 10 11 13 357 1
19 19 20 32 56 73 58 60 73 73 70 72 77 79 76 76 74 71 67 65 61 61 59 55 52 50 49 49 41 44 54 60 56 52 58 54 55 52 45 37 33 35 39 37 30 19 31 43 64 53 45 31 18 9 353 340 325 313 308 303 328 32 51 46 39 45 63 51 40 47 42 27 23 18 19 28 18 10 10 4 7 3 359 359 360
37 26 41 45 43 62 80 72 76 85 86 83 85 86 85 82 79 76 69 65 63 59 58 57 50 48 48 44 40 40 35 37 48 49 57 54 53 52 48 40 38 38 41 38 31 23 19 25 54 56 49 39 23 4 338 320 314 303 314 332 27 65 52 43 32 33 58 57 54 49 33 19 13 7 12 16 15 15 12 10 6 358 355 352 355
52 55 47 61 58 55 73 80 74 74 74 77 77 81 82 79 82 75 69 62 61 60 55 56 51 52 48 47 43 42 38 37 36 41 48 48 48 46 51 45 41 42 42 40 30 25 21 15 31 64 53 28 20 6 357 349 340 355 347 352 71 84 58 28 37 45 55 55 59 55 43 17 19 8 14 18 13 14 14 6 1 356 353 351 351
78 67 62 56 40 55 60 64 55 49 73 86 77 77 82 86 73 68 76 67 64 66 61 54 54 51 49 50 47 45 44 43 39 42 48 50 50 49 50 46 43 45 45 42 33 30 26 29 18 58 72 43 24 13 5 356 15 3 1 47 75 87 73 45 39 46 57 60 56 58 46 30 12 10 16 16 9 16 11 1 356 353 352 352 348
78 81 73 72 62 54 63 70 66 63 59 59 69 66 59 72 92 80 85 74 69 65 66 54 56 54 51 51 51 49 50 49 44 46 50 51 52 49 48 46 44 44 47 43 39 34 31 31 27 19 42 65 46 21 10 10 26 16 341 334 39 29 53 45 26 2 56 63 60 60 50 35 16 3 8 17 10 16 12 358 352 353 350 350 345
87 89 84 82 69 63 65 65 61 66 61 63 77 86 85 82 90 95 89 88 68 74 76 74 65 63 57 53 52 52 50 50 48 47 50 47 49 50 46 45 47 43 45 40 36 37 30 30 28 32 16 29 54 30 27 34 24 334 310 57 2 16 353 17 2 15 14 46 49 56 50 38 19 3 3 17 5 15 17 358 348 350 349 346 344
91 88 97 103 95 85 85 81 78 77 79 74 86 89 93 93 85 91 86 86 94 79 77 69 64 62 57 53 51 52 52 54 50 50 52 49 48 49 46 45 43 44 51 51 41 37 31 29 26 27 30 42 22 21 27 26 34 14 23 22 316 51 360 359 338 309 16 25 42 42 46 36 29 359 9 18 0 9 14 358 346 343 344 339 338
90 78 95 95 99 97 96 97 95 95 96 98 95 101 102 97 98 96 88 87 72 70 72 62 59 62 64 50 47 47 49 51 48 49 51 51 49 49 51 49 49 40 45 51 46 37 33 30 29 30 31 44 33 22 13 24 29 32 61 25 5 31 39 290 322 288 14 352 7 9 18 34 30 357 358 14 353 352 9 353 339 336 335 335 328
90 69 70 92 98 98 101 102 105 109 115 112 115 113 106 113 111 95 93 88 79 70 70 80 72 64 68 68 56 52 54 56 52 52 53 52 52 49 51 52 50 44 42 46 46 40 31 29 22 34 29 23 56 38 30 9 26 25 33 69 109 90 312 309 50 319 351 314 17 341 349 25 12 349 349 9 345 336 356 345 330 325 329 326 323
104 100 86 85 85 87 88 87 86 80 88 115 117 92 86 87 89 92 99 106 108 87 91 84 88 87 81 71 67 57 54 58 53 52 51 52 53 49 50 51 52 52 46 49 47 42 35 31 20 29 33 28 30 46 36 14 0 20 18 18 20 16 8 52 340 306 328 325 30 331 349 358 351 338 348 355 331 336 330 328 321 312 320 318 316
116 88 82 85 93 98 98 95 83 77 70 79 89 95 98 97 99 101 101 101 102 112 104 102 94 94 88 80 74 65 58 58 59 52 51 51 52 51 49 50 50 45 47 51 50 43 42 34 31 28 29 36 36 42 27 21 48 356 3 15 13 3 7 31 43 28 296 305 322 312 0 343 347 324 350 334 321 329 319 315 310 305 305 312 307
107 105 107 107 100 99 98 92 87 83 75 81 88 91 99 103 107 113 108 101 104 107 107 99 100 96 94 88 82 78 66 58 57 60 53 52 52 53 50 50 48 43 41 43 43 43 44 43 34 30 27 25 34 34 40 18 29 23 8 3 13 9 353 4 40 17 336 317 296 339 326 325 324 321 335 317 323 317 305 295 292 291 296 302 301
118 114 112 107 107 104 101 100 97 96 96 95 100 101 104 111 116 120 117 119 118 110 107 104 100 96 91 88 82 77 73 63 53 52 55 53 55 54 53 50 49 46 43 38 38 41 38 39 40 39 33 33 22 34 33 18 22 12 25 20 19 360 358 6 9 360 326 338 325 327 332 333 335 336 311 336 326 314 304 297 290 286 294 293 297
123 122 116 116 119 113 113 105 107 104 103 105 104 106 110 119 122 125 123 125 125 124 120 113 107 99 97 91 86 82 77 70 58 50 53 50 50 52 56 54 51 50 47 41 35 38 42 39 38 40 38 36 25 33 26 22 21 17 10 19 16 17 6 21 349 347 350 321 323 305 315 312 313 320 323 321 299 293 302 313 296 289 286 289 288